RA6011G NZMF-NZQN

Flight info

Callsign RA6011G
Flight time 0h 20m
Altitude 11000
Route 444131S1675759E DCT 444354S1675626E 444545S1675814E 444604S1680011E 444824S1680145E DCT KCREK DCT 445555S1682309E DCT 450558S1682807E
Aircraft B60T/L-SDFGRY/C

Departure

Time 2026-05-04 19:38
Airport Milford Sound Airport (NZMF)

Arrival

Time 2026-05-04 19:59
Airport Queenstown Airport (NZQN)
Time Latitude Longitude Altitude Speed Heading
2026-05-04 18:52 -44.67290 167.92392 95 ft 0 kts 129°
2026-05-04 19:34 -44.67292 167.92394 94 ft 2 kts 132°
2026-05-04 19:35 -44.67327 167.92386 94 ft 5 kts 195°
2026-05-04 19:35 -44.67334 167.92383 94 ft 0 kts 195°
2026-05-04 19:35 -44.67335 167.92383 94 ft 0 kts 195°
2026-05-04 19:36 -44.67347 167.92378 94 ft 7 kts 204°
2026-05-04 19:36 -44.67361 167.92369 96 ft 4 kts 195°
2026-05-04 19:36 -44.67424 167.92470 95 ft 19 kts 124°
2026-05-04 19:36 -44.67504 167.92626 93 ft 20 kts 124°
2026-05-04 19:37 -44.67533 167.92700 94 ft 14 kts 261°
2026-05-04 19:37 -44.67526 167.92671 94 ft 0 kts 308°
2026-05-04 19:37 -44.67518 167.92658 93 ft 15 kts 308°
2026-05-04 19:38 -44.67300 167.92220 93 ft 92 kts 305°
2026-05-04 19:38 -44.66884 167.91369 335 ft 118 kts 312°
2026-05-04 19:38 -44.66191 167.90598 515 ft 137 kts 330°
2026-05-04 19:38 -44.65343 167.89995 804 ft 135 kts 338°
2026-05-04 19:39 -44.64496 167.89464 968 ft 128 kts 353°
2026-05-04 19:39 -44.63960 167.90241 1132 ft 140 kts 95°
2026-05-04 19:39 -44.64657 167.91009 1288 ft 145 kts 193°
2026-05-04 19:39 -44.65740 167.90676 1296 ft 160 kts 182°
2026-05-04 19:40 -44.66751 167.91007 1852 ft 149 kts 144°
2026-05-04 19:40 -44.67390 167.92120 2212 ft 147 kts 112°
2026-05-04 19:40 -44.67817 167.93433 2495 ft 154 kts 111°
2026-05-04 19:40 -44.68253 167.94774 2910 ft 146 kts 119°
2026-05-04 19:41 -44.69025 167.95781 3421 ft 159 kts 154°
2026-05-04 19:41 -44.70141 167.96073 3696 ft 181 kts 179°
2026-05-04 19:41 -44.71330 167.95838 4339 ft 177 kts 202°
2026-05-04 19:41 -44.72401 167.95024 4892 ft 179 kts 210°
2026-05-04 19:42 -44.73561 167.94758 5720 ft 170 kts 171°
2026-05-04 19:42 -44.74722 167.95358 6212 ft 175 kts 150°
2026-05-04 19:42 -44.75683 167.96414 6779 ft 180 kts 133°
2026-05-04 19:42 -44.76394 167.97873 7291 ft 180 kts 111°
2026-05-04 19:43 -44.76806 167.99579 7636 ft 193 kts 93°
2026-05-04 19:43 -44.76902 168.01445 8087 ft 191 kts 85°
2026-05-04 19:43 -44.76926 168.03385 8302 ft 206 kts 85°
2026-05-04 19:43 -44.76746 168.05355 8608 ft 198 kts 69°
2026-05-04 19:44 -44.76429 168.07231 9037 ft 201 kts 81°
2026-05-04 19:44 -44.76855 168.09086 9602 ft 214 kts 120°
2026-05-04 19:44 -44.77752 168.10862 9659 ft 235 kts 130°
2026-05-04 19:44 -44.78964 168.12513 9660 ft 249 kts 134°
2026-05-04 19:45 -44.80144 168.14321 9666 ft 254 kts 126°
2026-05-04 19:45 -44.81208 168.16326 9632 ft 258 kts 123°
2026-05-04 19:45 -44.82256 168.18317 9676 ft 249 kts 128°
2026-05-04 19:45 -44.83388 168.20171 9656 ft 249 kts 129°
2026-05-04 19:46 -44.84510 168.22043 9659 ft 251 kts 128°
2026-05-04 19:46 -44.85767 168.23752 9657 ft 252 kts 141°
2026-05-04 19:46 -44.87061 168.25239 9614 ft 218 kts 140°
2026-05-04 19:46 -44.88165 168.26539 9389 ft 200 kts 139°
2026-05-04 19:47 -44.89212 168.27775 9114 ft 194 kts 140°
2026-05-04 19:47 -44.90238 168.28974 8856 ft 190 kts 140°
2026-05-04 19:47 -44.91247 168.30151 8632 ft 187 kts 140°
2026-05-04 19:47 -44.92233 168.31278 8323 ft 184 kts 140°
2026-05-04 19:48 -44.93206 168.32434 8062 ft 182 kts 139°
2026-05-04 19:48 -44.94167 168.33570 7862 ft 179 kts 140°
2026-05-04 19:48 -44.95121 168.34680 7641 ft 176 kts 140°
2026-05-04 19:48 -44.96059 168.35765 7438 ft 174 kts 140°
2026-05-04 19:49 -44.96924 168.36797 7107 ft 151 kts 137°
2026-05-04 19:49 -44.97744 168.37752 6336 ft 151 kts 143°
2026-05-04 19:49 -44.98588 168.38579 5657 ft 150 kts 145°
2026-05-04 19:49 -44.99485 168.39396 5223 ft 150 kts 146°
2026-05-04 19:50 -45.00365 168.40201 4728 ft 151 kts 146°
2026-05-04 19:50 -45.01259 168.40951 4247 ft 150 kts 155°
2026-05-04 19:50 -45.02199 168.41575 3734 ft 150 kts 153°
2026-05-04 19:50 -45.03147 168.42047 3325 ft 142 kts 174°
2026-05-04 19:51 -45.04129 168.42040 2896 ft 140 kts 174°
2026-05-04 19:51 -45.05071 168.42330 2556 ft 138 kts 160°
2026-05-04 19:51 -45.05992 168.42693 2411 ft 143 kts 164°
2026-05-04 19:51 -45.06968 168.43045 2261 ft 148 kts 163°
2026-05-04 19:52 -45.07960 168.43443 2140 ft 145 kts 161°
2026-05-04 19:52 -45.08702 168.44313 2061 ft 139 kts 120°
2026-05-04 19:52 -45.09145 168.45484 2042 ft 132 kts 119°
2026-05-04 19:52 -45.09325 168.46723 1981 ft 129 kts 87°
2026-05-04 19:53 -45.09232 168.47932 1998 ft 127 kts 76°
2026-05-04 19:53 -45.09028 168.49166 1984 ft 133 kts 79°
2026-05-04 19:53 -45.08876 168.50443 2028 ft 132 kts 81°
2026-05-04 19:53 -45.08759 168.51734 2039 ft 132 kts 84°
2026-05-04 19:54 -45.08676 168.53017 2073 ft 131 kts 75°
2026-05-04 19:54 -45.08342 168.54226 2074 ft 132 kts 65°
2026-05-04 19:54 -45.07982 168.55399 2134 ft 129 kts 65°
2026-05-04 19:54 -45.07633 168.56579 2152 ft 131 kts 68°
2026-05-04 19:55 -45.07326 168.57786 2174 ft 130 kts 71°
2026-05-04 19:55 -45.07024 168.58991 2197 ft 130 kts 64°
2026-05-04 19:55 -45.06616 168.60129 2218 ft 130 kts 59°
2026-05-04 19:55 -45.06192 168.61243 2227 ft 129 kts 60°
2026-05-04 19:56 -45.05762 168.62321 2272 ft 118 kts 59°
2026-05-04 19:56 -45.05353 168.63322 2129 ft 119 kts 57°
2026-05-04 19:56 -45.04923 168.64327 1957 ft 121 kts 58°
2026-05-04 19:56 -45.04509 168.65341 1845 ft 117 kts 59°
2026-05-04 19:57 -45.04089 168.66307 1770 ft 114 kts 58°
2026-05-04 19:57 -45.03727 168.67259 1786 ft 110 kts 58°
2026-05-04 19:57 -45.03419 168.68250 1739 ft 111 kts 69°
2026-05-04 19:57 -45.03186 168.69270 1741 ft 103 kts 70°
2026-05-04 19:58 -45.02993 168.70211 1705 ft 97 kts 63°
2026-05-04 19:58 -45.02596 168.70950 1635 ft 96 kts 43°
2026-05-04 19:58 -45.02267 168.71769 1509 ft 102 kts 79°
2026-05-04 19:58 -45.02141 168.72750 1332 ft 97 kts 71°
2026-05-04 19:59 -45.01991 168.73665 1185 ft 95 kts 73°
2026-05-04 19:59 -45.01853 168.74467 1167 ft 72 kts 78°
2026-05-04 19:59 -45.01784 168.74948 1166 ft 24 kts 79°
2026-05-04 19:59 -45.01750 168.75051 1214 ft 18 kts 250°
2026-05-04 20:00 -45.01789 168.74866 1164 ft 24 kts 257°
2026-05-04 20:00 -45.01830 168.74640 1166 ft 16 kts 255°
2026-05-04 20:00 -45.01851 168.74502 1168 ft 20 kts 259°
2026-05-04 20:00 -45.01877 168.74361 1172 ft 8 kts 251°
2026-05-04 20:01 -45.01893 168.74265 1173 ft 11 kts 258°
2026-05-04 20:01 -45.01910 168.74150 1172 ft 13 kts 248°
2026-05-04 20:01 -45.01995 168.74090 1169 ft 16 kts 200°
2026-05-04 20:01 -45.02043 168.73971 1168 ft 16 kts 276°
2026-05-04 20:02 -45.02057 168.73847 1167 ft 12 kts 239°
2026-05-04 20:02 -45.02089 168.73843 1168 ft 4 kts 81°
2026-05-04 20:02 -45.02083 168.73852 1167 ft 0 kts 37°